Simultaneous Nadir Overpasses (SNOs) Predictions

Prediction of SNOs between GOES-16 and NOAA-19 Satellite Orbit:

Table of predicted SNOs for the next 14.0 days since TLE Epoch: 4/15/2023
Index Date Time (GOES-16) GOES-16 Lat,Lon NOAA-19 Lat,Lon Distance(km) Time Diff (sec)
1 04/16/2023 01:41:43 -0.05, -75.21 -0.68, -77.96 313.37 80
2 04/17/2023 01:27:03 -0.05, -75.22 0.02, -75.04 21.39 80
3 04/18/2023 01:15:03 -0.04, -75.23 0.66, -72.11 356.12 80
4 04/20/2023 13:37:47 0.05, -75.28 0.43, -76.88 182.06 80
5 04/21/2023 13:23:07 0.04, -75.30 -0.27, -73.96 153.20 80
6 04/22/2023 13:11:08 0.04, -75.32 -0.98, -71.04 488.53 80
7 04/24/2023 01:46:06 -0.04, -75.33 -0.87, -78.78 394.49 80
8 04/25/2023 01:34:07 -0.04, -75.35 -0.14, -75.86 58.79 80
9 04/26/2023 01:19:26 -0.03, -75.37 0.53, -72.94 277.10 80
10 04/28/2023 13:42:11 0.03, -75.44 0.56, -77.71 259.29 80
